Starlink 34579

operational
NORAD ID: 64925 Int'l Des: 2025-157 Owner: SPXS Country: US Constellation: starlink
LEOCIRCULAR

About Starlink 34579

Description loading...

Live Position

Loading 3D Globe...

Upcoming Passes

Altitude History

Altitude vs Time

uPlot chart will show altitude changes over time

Two-Line Element Set

1 64925U 25157X 25312.70370498 .00098118 00000-0 24298-2 0 9991
2 64925 53.1563 193.7928 0001151 109.1701 250.9428 15.39640755 17516
Epoch: Nov 8, 2025 • Age: 38 hours

Current Status

Altitude 455.6 km
Velocity 7.64 km/s
Sub-Earth Point -30.00°S, 126.26°W
Launch Date Jul 26, 2025
Age 0.2 years
Type internet

Technical Details

Classification Payload
Mass 575.00 kg
Dry Mass 530.00 kg
Total Mass 575.00 kg
Length 0.30 m
Diameter 4.10 m
Span 29.00 m
Shape Box + pan
Manufacturer SPXS
Bus Type Starlink V2MO
Phase Status In Orbit
Owner/State SPXS/US

Large Constellations

Loading constellations...